Regional Weather Roundup
Issued by NWS Newport/Morehead, NC

Current Version | Previous Version | Graphics & Text | Print | Product List | Glossary On
Versions: 1 2 3 4 5 6 7 8 9 10 11 12 13 14 15 16 17 18 19 20 21 22 23 24 25 26 27 28 29 30 31 32 33 34 35 36 37 38 39 40 41 42 43 44 45 46 47 48 49 50
000 ASUS42 KMHX 240413 RWRMHX WEATHER ROUNDUP FOR EASTERN NORTH CAROLINA NATIONAL WEATHER SERVICE NEWPORT/MOREHEAD CITY NC 1200 AM EDT SUN MAY 24 2015 NOTE: "FAIR" INDICATES FEW OR NO CLOUDS BELOW 12,000 FEET WITH NO SIGNIFICANT WEATHER AND/OR OBSTRUCTIONS TO VISIBILITY NCZ015>017-031-032-045>047-102-103-240500- NORTH COAST CITY SKY/WX TMP DP RH WIND PRES REMARKS EDENTON CLEAR 61 53 74 S5 30.42S ELIZABETH CITY CLEAR 60 52 74 E6 30.42S KITTY HAWK CLEAR 60 55 83 E5 30.41F MANTEO CLEAR 60 55 83 E7 30.42F $$ NCZ045>047-081-094-103-104-240500- CENTRAL COAST CITY SKY/WX TMP DP RH WIND PRES REMARKS FRISCO CLEAR 60 56 86 NE6 30.41F SWANQUARTER N/A 57 N/A N/A E3 30.39S $$ NCZ095-097-098-100-101-240500- SOUTHERN COAST CITY SKY/WX TMP DP RH WIND PRES REMARKS BEAUFORT CLEAR 62 57 83 NE3 30.40S CEDAR ISLAND N/A 68 N/A N/A E9 30.44S JACKSONVILLE CLEAR 66 55 67 E7 30.39S PINEY ISLAND CLEAR N/A N/A N/A E8 30.40F WILMINGTON CLEAR 63 59 87 NE3 30.38F $$ NCZ011>013-027>030-043-044-078>080-089-090>093-098-240500- COASTAL PLAIN CITY SKY/WX TMP DP RH WIND PRES REMARKS AHOSKIE CLEAR 56 50 81 CALM 30.42R CLINTON CLEAR 64 57 76 CALM 30.39F ELIZABETHTOWN CLEAR 61 54 76 CALM 30.38S GOLDSBORO CLEAR 63 55 75 E2 30.38S GREENVILLE CLEAR 64 52 63 S6 30.41S HAVELOCK CLEAR 62 51 67 E3 30.42S KENANSVILLE CLEAR 58 55 89 CALM 30.41S KINSTON CLEAR 64 54 68 CALM 30.41F NEW BERN CLEAR 66 53 63 SE5 30.42S RICHLANDS CLEAR 57 52 82 CALM 30.40S ROCKY MOUNT CLEAR 64 53 67 S5 30.39F WASHINGTON CLEAR 60 51 72 E3 30.41S WHITEVILLE CLEAR 60 55 82 CALM 30.37F $$ AMZ130-135-150-152-154-156-158-170-250-252-270-ANZ085-086-088-633-658-670-240500- MARINE OBSERVATIONS STATION/POSITION TIME TEMP WIND PRES WAVE SWELL AIR SEA DIR/SP/G HT/PER HT/PER (UTC) (F) (DEG/KT/KT) (MB) (FT/S) (FT/S) CHESAPEAKE LIGHT 0300 60 150/ 11/ 11 1031.0 64 E VA BEACH 0350 61 61 110/ 6/ 6 1030.0 2/ 6 2/ 6 DUCK 0300 61 64 100/ 10/ 11 1029.2 2 E DUCK 0311 63 N/A 2/ 5 OREGON INLET 0300 62 72 60/ 7/ 9 1030.1 13E OREGON INLT 0400 62 N/A 2/ 5 HATTERAS CG 0300 65 74 60/ 4/ 7 1029.4 DIAMOND BUOY 0350 72 78 100/ 6/ 10 1029.3 3/ 6 3/ 6 CAPE LOOKOUT 0400 70 60/ 10/ 12 1029.1 BEAUFORT LAB 0300 67 75 60/ 3/ 5 1028.7 27 SE WRIGHTSVLE 0300 71 77 120/ 14/ 16 N/A 5 SE WRIGHTSVLE 0308 74 76 120/ 14/ 17 1028.6 225 S CAPE HAT 0350 72 74 80/ 21/ 25 1027.4 7/ 6 41 SE CHARLESTON 0350 75 75 90/ 17/ 19 1027.0 5/ 6 2/15 $$

USA.gov is the U.S. government's official web portal to all federal, state and local government web resources and services.